date,value
2016-03-15,1
2016-03-16,1
2016-03-18,1
2016-03-19,1
2016-03-20,1
2016-03-21,1
2016-03-24,1
2016-03-25,17
2016-03-26,17
2016-03-27,22
2016-03-28,32
2016-03-29,36
2016-03-30,29
2016-03-31,25
2016-04-01,24
2016-04-02,15
2016-04-03,15
2016-04-04,31
2016-04-05,25
2016-04-06,18
2016-04-07,24
2016-04-08,19
2016-04-09,19
2016-04-10,22
2016-04-11,24
2016-04-12,21
2016-04-13,21
2016-04-14,25
2016-04-15,10
2016-04-16,7
2016-04-17,20
2016-04-18,21
2016-04-19,27
2016-04-20,22
2016-04-21,24
2016-04-22,25
2016-04-23,12
2016-04-24,12
2016-04-25,22
2016-04-26,23
2016-04-27,19
2016-04-28,21
2016-04-29,17
2016-04-30,15
2016-05-01,17
2016-05-02,29
2016-05-03,20
2016-05-04,28
2016-05-05,19
2016-05-06,18
2016-05-07,13
2016-05-08,21
2016-05-09,28
2016-05-10,21
2016-05-11,21
2016-05-12,25
2016-05-13,33
2016-05-14,25
2016-05-15,30
2016-05-16,30
2016-05-17,25
2016-05-18,24
2016-05-19,20
2016-05-20,19
2016-05-21,24
2016-05-22,19
2016-05-23,26
2016-05-24,17
2016-05-25,19
2016-05-26,19
2016-05-27,14
2016-05-28,14
2016-05-29,15
2016-05-30,19
2016-05-31,17
2016-06-01,22
2016-06-02,21
2016-06-03,18
2016-06-04,14
2016-06-05,19
2016-06-06,16
2016-06-07,22
2016-06-08,25
2016-06-09,19
2016-06-10,16
2016-06-11,16
2016-06-12,17
2016-06-13,17
2016-06-14,18
2016-06-15,20
2016-06-16,27
2016-06-17,22
2016-06-18,22
2016-06-19,36
2016-06-20,44
2016-06-21,29
2016-06-22,32
2016-06-23,28
2016-06-24,27
2016-06-25,17
2016-06-26,25
2016-06-27,26
2016-06-28,28
2016-06-29,37
2016-06-30,22
2016-07-01,21
2016-07-02,25
2016-07-03,24
2016-07-04,28
2016-07-05,21
2016-07-06,26
2016-07-07,22
2016-07-08,18
2016-07-09,16
2016-07-10,17
2016-07-11,22
2016-07-12,19
2016-07-13,24
2016-07-14,28
2016-07-15,20
2016-07-16,16
2016-07-17,22
2016-07-18,24
2016-07-19,25
2016-07-20,21
2016-07-21,24
2016-07-22,11
